Change the Weather History Date:

Friday, February 1, 2013

  Actual Average (KLEX) Record (KLEX)
Temperature  
Mean Temperature 16 °F 34 °F  
Max Temperature 23 °F 42 °F 67 °F (1911)
Min Temperature 8 °F 26 °F -5 °F (1945)
Degree Days  
Heating Degree Days 50 31  
Month to date heating degree days 31  
Since 1 July heating degree days 2814  
Cooling Degree Days 0 0  
Month to date cooling degree days 0  
Year to date cooling degree days 0  
Moisture  
Dew Point 7 °F    
Average Humidity 67    
Maximum Humidity 86    
Minimum Humidity 54    
Precipitation  
Precipitation 0.00 in 0.12 in 1.73 in (1981)
Month to date precipitation 0.12  
Year to date precipitation 3.32  
Snow  
Snow 0.00 in 0.20 in 6.10 in (1966)
Month to date snowfall 0.2  
Since 1 July snowfall 6.9  
Snow Depth -    
Sea Level Pressure  
Sea Level Pressure 30.34 in    
Wind  
Wind Speed 10 mph (WNW)    
Max Wind Speed 20 mph    
Max Gust Speed 36 mph    
Visibility 10 miles    
Events Snow    
T = Trace of Precipitation, MM = Missing Value Source: NWS Daily Summary

Daily Weather History Graph

Daily Weather History Graph

Search for Another Location

Airport or City:

Trip Planner

Search our weather history database for the weather conditions in past years. The results will help you decide how hot, cold, wet, or windy it might be!

Date:

Astronomy

Feb. 01, 2013 Rise Set
Actual Time 7:42 AM EST 6:03 PM EST
Civil Twilight 7:14 AM EST 6:30 PM EST
Nautical Twilight 6:43 AM EST 7:02 PM EST
Astronomical Twilight 6:12 AM EST 7:33 PM EST
Moon No Moon Rise 10:23 AM EST (2/1)
Length of Visible Light 11h 16m
Length of Day
10h 20m
Waning Gibbous, 70% of the Moon is Illuminated
Feb 1
Waning Gibbous
Feb 3
Last Quarter
Feb 10
New
Feb 17
First Quarter
Feb 25
Full

Hourly Weather History & Observations

Time (EST) Temp. Windchill Dew Point Humidity Pressure Visibility Wind Dir Wind Speed Gust Speed Precip Events Conditions
12:15 AM 23.0 °F 9.6 °F 19.4 °F 86% 30.06 in 3.0 mi NW 16.1 mph 27.6 mph N/A Snow Light Snow
12:35 AM 21.2 °F 7.3 °F 17.6 °F 86% 30.08 in 1.2 mi NW 16.1 mph 27.6 mph N/A Snow Light Snow
12:55 AM 21.2 °F 6.0 °F 14.0 °F 74% 30.10 in 5.0 mi WNW 19.6 mph 29.9 mph N/A Snow Light Snow
1:15 AM 21.2 °F 6.0 °F 10.4 °F 63% 30.12 in 10.0 mi NW 19.6 mph 27.6 mph N/A   Overcast
1:35 AM 19.4 °F 5.0 °F 8.6 °F 63% 30.15 in 10.0 mi NW 16.1 mph 24.2 mph N/A   Mostly Cloudy
1:55 AM 17.6 °F 2.2 °F 5.0 °F 58% 30.17 in 7.0 mi NW 17.3 mph 35.7 mph N/A   Mostly Cloudy
2:15 AM 15.8 °F 2.1 °F 6.8 °F 68% 30.19 in 10.0 mi NW 12.7 mph 28.8 mph N/A   Mostly Cloudy
2:35 AM 14.0 °F -2.0 °F 6.8 °F 73% 30.21 in 10.0 mi NW 16.1 mph 26.5 mph N/A   Scattered Clouds
2:55 AM 14.0 °F -3.0 °F 5.0 °F 67% 30.22 in 10.0 mi NW 18.4 mph 27.6 mph N/A   Mostly Cloudy
3:15 AM 14.0 °F -1.4 °F 5.0 °F 67% 30.24 in 10.0 mi NW 15.0 mph 24.2 mph N/A   Overcast
3:35 AM 14.0 °F 0.5 °F 5.0 °F 67% 30.25 in 10.0 mi NNW 11.5 mph 17.3 mph N/A   Mostly Cloudy
3:55 AM 14.0 °F 0.5 °F 5.0 °F 67% 30.26 in 10.0 mi NW 11.5 mph - N/A   Overcast
4:15 AM 14.0 °F 2.9 °F 5.0 °F 67% 30.26 in 10.0 mi NW 8.1 mph - N/A   Overcast
4:35 AM 14.0 °F -0.2 °F 6.8 °F 73% 30.27 in 10.0 mi NW 12.7 mph 16.1 mph N/A   Overcast
4:55 AM 14.0 °F 2.0 °F 6.8 °F 73% 30.27 in 10.0 mi WNW 9.2 mph - N/A   Overcast
5:15 AM 14.0 °F 3.9 °F 6.8 °F 73% 30.28 in 10.0 mi NNW 6.9 mph - N/A   Overcast
5:35 AM 14.0 °F 3.9 °F 8.6 °F 79% 30.30 in 10.0 mi NNW 6.9 mph - N/A   Overcast
5:55 AM 14.0 °F 2.0 °F 8.6 °F 79% 30.31 in 4.0 mi NW 9.2 mph - N/A Snow Light Snow
6:15 AM 12.2 °F 1.7 °F 5.0 °F 73% 30.32 in 10.0 mi NW 6.9 mph - N/A   Mostly Cloudy
6:35 AM 12.2 °F 4.3 °F 5.0 °F 73% 30.33 in 10.0 mi NNW 4.6 mph - N/A   Scattered Clouds
6:55 AM 10.4 °F -0.4 °F 5.0 °F 79% 30.33 in 10.0 mi NW 6.9 mph - N/A   Clear
7:15 AM 10.4 °F 0.8 °F 3.2 °F 73% 30.34 in 10.0 mi NW 5.8 mph - N/A   Clear
7:35 AM 10.4 °F 2.2 °F 3.2 °F 73% 30.35 in 10.0 mi NW 4.6 mph - N/A   Mostly Cloudy
7:55 AM 10.4 °F -0.4 °F 1.4 °F 67% 30.36 in 10.0 mi NW 6.9 mph - N/A   Scattered Clouds
8:15 AM 8.6 °F -3.7 °F 1.4 °F 73% 30.37 in 10.0 mi NW 8.1 mph - N/A   Clear
8:35 AM 10.4 °F 0.8 °F -0.4 °F 62% 30.39 in 10.0 mi NNW 5.8 mph - N/A   Clear
8:55 AM 10.4 °F -0.4 °F 1.4 °F 67% 30.40 in 10.0 mi NNW 6.9 mph - N/A   Clear
9:15 AM 10.4 °F -1.5 °F -0.4 °F 62% 30.41 in 10.0 mi NW 8.1 mph - N/A   Clear
9:35 AM 10.4 °F -1.5 °F 1.4 °F 67% 30.41 in 10.0 mi NW 8.1 mph - N/A   Clear
9:55 AM 12.2 °F 1.7 °F 1.4 °F 62% 30.42 in 10.0 mi NW 6.9 mph - N/A   Clear
10:15 AM 12.2 °F 2.9 °F 3.2 °F 67% 30.42 in 10.0 mi WNW 5.8 mph - N/A   Clear
10:35 AM 14.0 °F 8.2 °F 3.2 °F 62% 30.42 in 10.0 mi WNW 3.5 mph - N/A   Clear
10:55 AM 14.0 °F 2.9 °F 3.2 °F 62% 30.44 in 10.0 mi WSW 8.1 mph - N/A   Clear
11:15 AM 14.0 °F 1.2 °F 5.0 °F 67% 30.45 in 10.0 mi West 10.4 mph - N/A   Clear
11:35 AM 15.8 °F 6.1 °F 5.0 °F 62% 30.45 in 10.0 mi WSW 6.9 mph - N/A   Scattered Clouds
11:55 AM 15.8 °F 5.1 °F 3.2 °F 58% 30.45 in 10.0 mi West 8.1 mph - N/A   Clear
12:15 PM 17.6 °F 9.3 °F 5.0 °F 58% 30.45 in 10.0 mi West 5.8 mph - N/A   Clear
12:35 PM 17.6 °F 10.7 °F 8.6 °F 68% 30.44 in 10.0 mi West 4.6 mph - N/A   Clear
12:55 PM 17.6 °F 9.3 °F 5.0 °F 58% 30.43 in 10.0 mi West 5.8 mph - N/A   Scattered Clouds
1:15 PM 19.4 °F 10.4 °F 8.6 °F 63% 30.42 in 10.0 mi West 6.9 mph - N/A   Clear
1:35 PM 19.4 °F 12.8 °F 6.8 °F 58% 30.41 in 10.0 mi West 4.6 mph - N/A   Clear
1:55 PM 19.4 °F 9.5 °F 6.8 °F 58% 30.41 in 10.0 mi West 8.1 mph - N/A   Clear
2:15 PM 19.4 °F 12.8 °F 8.6 °F 63% 30.40 in 10.0 mi West 4.6 mph - N/A   Clear
2:35 PM 19.4 °F 10.4 °F 6.8 °F 58% 30.40 in 10.0 mi WSW 6.9 mph - N/A   Scattered Clouds
2:55 PM 19.4 °F 12.8 °F 8.6 °F 63% 30.39 in 10.0 mi WSW 4.6 mph - N/A   Scattered Clouds
3:15 PM 21.2 °F 13.6 °F 8.6 °F 58% 30.39 in 10.0 mi West 5.8 mph - N/A   Clear
3:35 PM 21.2 °F 13.6 °F 8.6 °F 58% 30.39 in 10.0 mi West 5.8 mph - N/A   Scattered Clouds
3:55 PM 21.2 °F 12.6 °F 8.6 °F 58% 30.39 in 10.0 mi WNW 6.9 mph - N/A   Scattered Clouds
4:15 PM 23.0 °F 15.8 °F 8.6 °F 54% 30.38 in 10.0 mi WNW 5.8 mph - N/A   Clear
4:35 PM 23.0 °F 14.7 °F 8.6 °F 54% 30.38 in 10.0 mi WNW 6.9 mph - N/A   Clear
4:55 PM 23.0 °F 17.0 °F 8.6 °F 54% 30.38 in 10.0 mi WSW 4.6 mph - N/A   Clear
5:15 PM 23.0 °F 18.4 °F 8.6 °F 54% 30.37 in 10.0 mi WSW 3.5 mph - N/A   Clear
5:35 PM 21.2 °F 12.6 °F 8.6 °F 58% 30.38 in 10.0 mi WSW 6.9 mph - N/A   Clear
5:55 PM 21.2 °F 12.6 °F 8.6 °F 58% 30.38 in 10.0 mi WSW 6.9 mph - N/A   Clear
6:15 PM 19.4 °F 11.5 °F 8.6 °F 63% 30.38 in 10.0 mi WSW 5.8 mph - N/A   Clear
6:35 PM 19.4 °F 14.3 °F 8.6 °F 63% 30.38 in 10.0 mi WSW 3.5 mph - N/A   Clear
6:55 PM 19.4 °F 14.3 °F 8.6 °F 63% 30.38 in 10.0 mi WSW 3.5 mph - N/A   Clear
7:15 PM 19.4 °F - 8.6 °F 63% 30.39 in 10.0 mi Calm Calm - N/A   Clear
7:35 PM 19.4 °F 14.3 °F 8.6 °F 63% 30.39 in 10.0 mi SW 3.5 mph - N/A   Clear
8:15 PM 17.6 °F 12.3 °F 10.4 °F 73% 30.39 in 10.0 mi WSW 3.5 mph - N/A   Clear
8:35 PM 17.6 °F 12.3 °F 10.4 °F 73% 30.39 in 10.0 mi WSW 3.5 mph - N/A   Clear
8:55 PM 17.6 °F - 10.4 °F 73% 30.39 in 10.0 mi Calm Calm - N/A   Clear
9:15 PM 17.6 °F - 10.4 °F 73% 30.37 in 10.0 mi Calm Calm - N/A   Clear
9:35 PM 19.4 °F 14.3 °F 10.4 °F 68% 30.36 in 10.0 mi South 3.5 mph - N/A   Clear
9:55 PM 17.6 °F 10.7 °F 10.4 °F 73% 30.36 in 10.0 mi South 4.6 mph - N/A   Clear
10:15 PM 17.6 °F - 10.4 °F 73% 30.35 in 10.0 mi Calm Calm - N/A   Clear
10:35 PM 19.4 °F 14.3 °F 12.2 °F 74% 30.36 in 10.0 mi SW 3.5 mph - N/A   Clear
10:55 PM 19.4 °F - 12.2 °F 74% 30.36 in 10.0 mi Calm Calm - N/A   Clear
11:15 PM 19.4 °F 14.3 °F 12.2 °F 74% 30.35 in 10.0 mi SSW 3.5 mph - N/A   Clear
11:35 PM 19.4 °F 14.3 °F 12.2 °F 74% 30.34 in 10.0 mi South 3.5 mph - N/A   Clear
11:55 PM 19.4 °F 11.5 °F 12.2 °F 74% 30.34 in 10.0 mi SSW 5.8 mph - N/A   Scattered Clouds